When you browse on this site, cookies collect data to enhance your experience and personalize the content and advertising you see.
Visit our Privacy Policy to learn more. By continuing to use the site, you agree to this use of cookies and data.
  • In Czech Republic
  • List of Countries
  • For 7 days
  • Water Temperature
  • Weather Map
  • Weather Widgets
  • user-avatar
    Login

    Hourly Weather Piec

    Today, 27 May, Wednesday

    Time Temperature Precipitation Wind Pressure Humidity
    00:00 +8°C° 0 mm 3 mps 745 mmHg 95%
    01:00 +8°C° 0 mm 3 mps 745 mmHg 96%
    02:00 +7°C° 0 mm 3 mps 745 mmHg 96%
    03:00 +7°C° 0 mm 2 mps 745 mmHg 97%
    04:00 +7°C° 0 mm 2 mps 745 mmHg 97%
    05:00 +8°C° 0 mm 3 mps 745 mmHg 94%
    06:00 +10°C° 0 mm 3 mps 745 mmHg 91%
    07:00 +11°C° 0 mm 3 mps 745 mmHg 88%
    08:00 +13°C° 0.1 mm 4 mps 745 mmHg 81%
    09:00 +14°C° 0.1 mm 4 mps 745 mmHg 75%
    10:00 +15°C° 0.1 mm 5 mps 745 mmHg 68%
    11:00 +16°C° 0.2 mm 5 mps 745 mmHg 66%
    12:00 +16°C° 0.2 mm 5 mps 744 mmHg 64%
    13:00 +17°C° 0.2 mm 5 mps 744 mmHg 62%
    14:00 +17°C° 0.3 mm 5 mps 744 mmHg 63%
    15:00 +17°C° 0.3 mm 5 mps 743 mmHg 64%
    16:00 +16°C° 0.3 mm 5 mps 743 mmHg 66%
    17:00 +15°C° 0.1 mm 5 mps 743 mmHg 71%
    18:00 +14°C° 0.1 mm 4 mps 743 mmHg 77%
    19:00 +13°C° 0.1 mm 3 mps 743 mmHg 83%
    20:00 +13°C° 0 mm 2 mps 743 mmHg 85%
    21:00 +12°C° 0 mm 2 mps 743 mmHg 87%
    22:00 +11°C° 0 mm 1 mps 743 mmHg 90%
    23:00 +10°C° 0 mm 1 mps 742 mmHg 90%

    Tomorrow, 28 May, Thursday

    Time Temperature Precipitation Wind Pressure Humidity
    00:00 +10°C° 0 mm 1 mps 742 mmHg 90%
    01:00 +10°C° 0 mm 1 mps 742 mmHg 90%
    02:00 +9°C° 0 mm 1 mps 742 mmHg 91%
    03:00 +9°C° 0 mm 1 mps 742 mmHg 91%
    04:00 +9°C° 0 mm 1 mps 741 mmHg 91%
    05:00 +9°C° 0 mm 2 mps 741 mmHg 87%
    06:00 +12°C° 0 mm 2 mps 741 mmHg 83%
    07:00 +13°C° 0 mm 2 mps 741 mmHg 79%
    08:00 +14°C° 0.2 mm 2 mps 741 mmHg 75%
    09:00 +14°C° 0.2 mm 3 mps 741 mmHg 71%
    10:00 +16°C° 0.2 mm 3 mps 740 mmHg 68%
    11:00 +15°C° 0.5 mm 4 mps 740 mmHg 70%
    12:00 +15°C° 0.5 mm 5 mps 740 mmHg 73%
    13:00 +15°C° 0.5 mm 5 mps 739 mmHg 75%
    14:00 +14°C° 0.2 mm 5 mps 739 mmHg 75%
    15:00 +14°C° 0.2 mm 5 mps 739 mmHg 75%
    16:00 +14°C° 0.2 mm 5 mps 739 mmHg 75%
    17:00 +13°C° 0 mm 4 mps 739 mmHg 77%
    18:00 +13°C° 0 mm 4 mps 739 mmHg 80%
    19:00 +12°C° 0 mm 3 mps 739 mmHg 82%
    20:00 +11°C° 0 mm 3 mps 739 mmHg 85%
    21:00 +10°C° 0 mm 3 mps 739 mmHg 88%
    22:00 +9°C° 0 mm 3 mps 739 mmHg 91%
    23:00 +9°C° 0 mm 3 mps 739 mmHg 93%

    Day after tomorrow, 29 May, Friday

    Time Temperature Precipitation Wind Pressure Humidity
    00:00 +8°C° 0 mm 3 mps 739 mmHg 94%
    01:00 +8°C° 0 mm 3 mps 739 mmHg 96%
    02:00 +8°C° 0 mm 3 mps 738 mmHg 96%
    03:00 +7°C° 0 mm 4 mps 738 mmHg 96%
    04:00 +7°C° 0 mm 4 mps 738 mmHg 96%
    05:00 +8°C° 0 mm 4 mps 739 mmHg 95%
    06:00 +8°C° 0 mm 4 mps 739 mmHg 93%
    07:00 +10°C° 0 mm 4 mps 739 mmHg 92%
    08:00 +11°C° 0 mm 4 mps 739 mmHg 88%
    09:00 +12°C° 0 mm 4 mps 739 mmHg 83%
    10:00 +12°C° 0 mm 5 mps 739 mmHg 78%
    11:00 +13°C° 0.3 mm 5 mps 738 mmHg 75%
    12:00 +14°C° 0.3 mm 6 mps 738 mmHg 72%
    13:00 +15°C° 0.3 mm 6 mps 738 mmHg 69%
    14:00 +15°C° 0.5 mm 6 mps 738 mmHg 70%
    15:00 +15°C° 0.5 mm 6 mps 737 mmHg 70%
    16:00 +14°C° 0.5 mm 7 mps 737 mmHg 71%
    17:00 +13°C° 0.1 mm 6 mps 737 mmHg 73%
    18:00 +12°C° 0.1 mm 5 mps 737 mmHg 75%
    19:00 +12°C° 0.1 mm 4 mps 737 mmHg 77%
    20:00 +10°C° 0 mm 4 mps 737 mmHg 80%
    21:00 +8°C° 0 mm 4 mps 737 mmHg 84%
    22:00 +7°C° 0 mm 4 mps 737 mmHg 87%
    23:00 +6°C° 0 mm 4 mps 737 mmHg 89%

    30 May, Saturday

    Time Temperature Precipitation Wind Pressure Humidity
    00:00 +7°C° 0 mm 3 mps 737 mmHg 91%
    01:00 +5°C° 0 mm 3 mps 737 mmHg 92%
    02:00 +5°C° 0 mm 3 mps 737 mmHg 91%
    03:00 +5°C° 0 mm 3 mps 737 mmHg 89%
    04:00 +5°C° 0 mm 4 mps 737 mmHg 88%
    05:00 +5°C° 0 mm 4 mps 737 mmHg 85%
    06:00 +6°C° 0 mm 4 mps 736 mmHg 83%
    07:00 +7°C° 0 mm 5 mps 736 mmHg 80%
    08:00 +8°C° 0 mm 5 mps 736 mmHg 75%
    09:00 +10°C° 0 mm 5 mps 736 mmHg 70%
    10:00 +12°C° 0 mm 5 mps 736 mmHg 66%
    11:00 +12°C° 0.1 mm 5 mps 736 mmHg 68%
    12:00 +12°C° 0.1 mm 5 mps 736 mmHg 71%
    13:00 +12°C° 0.1 mm 5 mps 736 mmHg 74%
    14:00 +11°C° 0.1 mm 4 mps 735 mmHg 77%
    15:00 +11°C° 0.1 mm 4 mps 735 mmHg 81%
    16:00 +10°C° 0.1 mm 4 mps 735 mmHg 85%
    17:00 +10°C° 0 mm 4 mps 735 mmHg 85%
    18:00 +10°C° 0 mm 3 mps 735 mmHg 86%
    19:00 +9°C° 0 mm 3 mps 735 mmHg 87%
    20:00 +9°C° 0 mm 3 mps 735 mmHg 88%
    21:00 +8°C° 0 mm 3 mps 735 mmHg 89%
    22:00 +8°C° 0 mm 3 mps 735 mmHg 90%
    23:00 +8°C° 0 mm 3 mps 735 mmHg 90%

    31 May, Sunday

    Time Temperature Precipitation Wind Pressure Humidity
    00:00 +8°C° 0 mm 3 mps 734 mmHg 89%
    01:00 +7°C° 0 mm 4 mps 734 mmHg 89%
    02:00 +7°C° 0 mm 4 mps 734 mmHg 89%
    03:00 +7°C° 0 mm 5 mps 734 mmHg 89%
    04:00 +7°C° 0 mm 5 mps 733 mmHg 89%
    05:00 +7°C° 0.1 mm 5 mps 733 mmHg 90%
    06:00 +8°C° 0.1 mm 5 mps 733 mmHg 91%
    07:00 +8°C° 0.1 mm 6 mps 733 mmHg 92%
    08:00 +8°C° 1.5 mm 6 mps 733 mmHg 93%
    09:00 +8°C° 1.5 mm 6 mps 733 mmHg 95%
    10:00 +9°C° 1.5 mm 6 mps 732 mmHg 96%
    11:00 +9°C° 0.6 mm 6 mps 732 mmHg 96%
    12:00 +10°C° 0.6 mm 6 mps 732 mmHg 96%
    13:00 +10°C° 0.6 mm 6 mps 732 mmHg 96%
    14:00 +12°C° 1.3 mm 5 mps 732 mmHg 97%
    15:00 +12°C° 1.3 mm 5 mps 732 mmHg 97%
    16:00 +13°C° 1.3 mm 4 mps 733 mmHg 98%
    17:00 +13°C° 0.9 mm 4 mps 733 mmHg 97%
    18:00 +13°C° 0.9 mm 4 mps 733 mmHg 96%
    19:00 +14°C° 0.9 mm 5 mps 733 mmHg 95%
    20:00 +14°C° 0.1 mm 5 mps 733 mmHg 96%
    21:00 +13°C° 0.1 mm 5 mps 733 mmHg 96%
    22:00 +13°C° 0.1 mm 4 mps 734 mmHg 96%
    23:00 +13°C° 0.2 mm 4 mps 734 mmHg 97%

    1 June, Monday

    Time Temperature Precipitation Wind Pressure Humidity
    00:00 +13°C° 0.2 mm 4 mps 734 mmHg 97%
    01:00 +13°C° 0.2 mm 4 mps 734 mmHg 97%
    02:00 +12°C° 0 mm 4 mps 734 mmHg 97%
    03:00 +12°C° 0 mm 4 mps 734 mmHg 98%
    04:00 +11°C° 0 mm 4 mps 734 mmHg 98%
    05:00 +12°C° 0 mm 4 mps 734 mmHg 96%
    06:00 +13°C° 0 mm 4 mps 735 mmHg 94%
    07:00 +13°C° 0 mm 4 mps 735 mmHg 93%
    08:00 +14°C° 0 mm 5 mps 735 mmHg 88%
    09:00 +15°C° 0 mm 5 mps 736 mmHg 83%
    10:00 +16°C° 0 mm 5 mps 736 mmHg 78%
    11:00 +19°C° 0.2 mm 5 mps 736 mmHg 74%
    12:00 +20°C° 0.2 mm 5 mps 736 mmHg 69%
    13:00 +21°C° 0.2 mm 6 mps 736 mmHg 64%
    14:00 +20°C° 0.3 mm 5 mps 736 mmHg 66%
    15:00 +20°C° 0.3 mm 5 mps 736 mmHg 68%
    16:00 +20°C° 0.3 mm 5 mps 736 mmHg 70%
    17:00 +19°C° 0.1 mm 5 mps 736 mmHg 76%
    18:00 +18°C° 0.1 mm 4 mps 736 mmHg 81%
    19:00 +17°C° 0.1 mm 3 mps 736 mmHg 86%
    20:00 +16°C° 0 mm 3 mps 736 mmHg 89%
    21:00 +13°C° 0 mm 3 mps 736 mmHg 91%
    22:00 +12°C° 0 mm 3 mps 737 mmHg 94%
    23:00 +12°C° 0 mm 3 mps 737 mmHg 94%
    Show more